Location: Banff
(51.1667°N, 115.5667°W)
Time: 21:21:50
(UTC+00:00)

X-37B - Pass Details

Date: 01 November 2020
Orbit: 384 x 390 km, 45.0° (Epoch: 26 November)

Event Time Altitude Azimuth Distance (km) Brightness Sun altitude
Rises 13:38:33 0° 207° (SSW) 2,262 4.3 -9.4°
Reaches altitude 10° 13:42:00 10° 167° (SSE) 1,410 3.8 -8.9°
Maximum altitude 13:42:47 11° 152° (SSE) 1,370 4.0 -8.8°
Drops below altitude 10° 13:43:35 10° 138° (SE) 1,411 4.3 -8.7°
Sets 13:47:02 0° 98° (E) 2,267 6.9 -8.1°
